STARLINK-33583, 63503

Orbit data source: Space-Track

STARLINK-33583, 63503 is a payload satellite owned by SpaceX/Seattle (US) in LEO that was launched on Mon, 07 Apr 2025 UTC via an FALCON 9 launch vehicle from the Air Force Western Test Range (AFWTR). Payload-class satellites include a variety of spacecraft equipped with specific instruments for various scientific and technological missions. These include communications satellites like Starlink; space stations such as the ISS; scientific satellites like the Hubble; Earth observation satellites from companies like Planet Labs, Umbra, and HawkEye 360; GPS; miniature CubeSats for education and research; and military/defense satellites.

Loading next visibility...
Identifier
63503, 2025-071L
Orbit
LEO
Last TLE update
11 hours ago
Origin
Manufacturer
SpaceX/Seattle
Mission
Operational Commercial Communications
Bus & Motor
STARLINK V2MO, Unknown motor
Mass
575 kg wet, ~530 kg dry
Launch date (UTC)
2025-04-07 (3 months ago)
Launch vehicle
FALCON 9
Launch site
Air Force Western Test Range (AFWTR)
Object type
Payload
Rocket body
Debris
Shape & HBR
Box + 1 Pan, 29 m
Radar Cross Section
41.120 m², Large (>1 m²)

Expand to show TLE details & history

TLE from 11 hours ago
0 STARLINK-33583
1 63503U 25071L   25182.43347799  .00010629  00000-0  37040-3 0  9991
2 63503  53.1562 229.6644 0001068  89.8122 270.3001 15.30207923 14278
Epoch: 2025-07-01T10:24Z
TLE epoch observation values (Epoch: 2025-07-01T10:24:12.498Z)
Latitude
-0.00002°
Longitude
153.88331°
Altitude
476.087 km
Speed
7.629 km/s
True Right ascension
15h 18m 39s
True Declination
0° 00' 00"
Sunlit
Object was in full shadow at epoch
Visualization orbit readout
Latitude
-12.72707°
Longitude
142.08347°
Altitude
478.789 km
Speed
7.627 km/s
Apparent Right ascension
17h 05m 33s
Apparent Declination
-35° 30' 33"
Sunlit
Object is in full shadow
Visualization observer readout
Local Sidereal Time
08:58:39
Azimuth
103.859° ESE
Elevation
-44.509°
Doppler factor
1
Orbital elements
Apogee altitude
476.18 km
Perigee altitude
474.716 km
Semi-major axis
6,853.585 km
Eccentricity
0.00011
Inclination
53.1562°
RAAN
229.6644°
Arg. of periapsis
89.8122°
True anomaly
Unknown
Mean anomaly
270.3001°
Eccentric anomaly
Unknown
Mean motion
3.82531 °/min
Orbital period
94.11 mins
BSTAR
0.0003704
Loading maneuver chart data...
Loading SW <> Apogee altitude chart data...
Loading historical data...
Loading historical data...
Loading historical data...
Loading historical data...
Loading historical data...
Loading historical data...
Loading historical data...

STARLINK-33583 Visibility forecast

Observer location: undefined°, undefined°

Span
Click to sort rows by Start time (UTC) header in descending order
Start Az.
Max El. time (UTC)
Max El. Az.
Max El.
End time (UTC)
End Az.
6 mins2025-07-02 05:22:25.247Z205.12° SW2025-07-02 05:25:25.247Z141.339° SSE34.564°2025-07-02 05:28:25.247Z65.261° ENE
4 mins2025-07-02 07:02:25.247Z300.482° NW2025-07-02 07:03:25.247Z327.034° NNW24.009°2025-07-02 07:06:25.247Z28.272° NE
5 mins2025-07-02 11:58:25.247Z333.841° NNW2025-07-02 12:00:25.247Z30.682° NE32.665°2025-07-02 12:03:25.247Z101.427° ESE
4 mins2025-07-02 13:36:25.247Z270.81° WNW2025-07-02 13:38:25.247Z224.455° SW22.277°2025-07-02 13:40:25.247Z183.122° SSW
|